EHI
1 1 0 0 0 0 0 0 0 0 0 0 0 0 0 0 0 0 0 0 0 0 0 0 0 0 0 0 0 0 0 0 0 0 0 0 0 0 0 0 0 0 0
1 0 0 0 0 0 0 0 0 0 0 0 0 0 0 0 0 0 0 0 0 0 0 0 0 0 0 0 0 0 0 0 0 0 0 0 0 0 0 0 0 0 0
0 0 0 0 0 0 0 0 0 0 0 0 0 0 0 0 0 0 0 0 0 0 0 0 0 0 0 0 0 0 0 0 0 0 0 0 0 0 0 0 0 0 0
0 0 0 0 0 0 0 0 0 0 0 0 0 0 0 0 0 0 0 0 0 0 0 0 0 0 0 0 0 0 0 0 0 0 0 0 0 0 0 0 0 0 0
0 0 0 0 0 0 0 0 0 0 0 0 0 0 0 0 0 0 0 0 0 0 0 0 0 0 0 0 0 0 0 0 0 0 0 0 0 0 0 0 0 0 0
0 0 0 0 0 0 0 0 0 0 0 0 0 0 0 0 0 0 0 0 0 0 0 0 0 0 0 0 0 0 0 0 0 0 0 0 0 0 0 0 0 0 0
0 0 0 0 0 0 0 0 0 0 0 0 0 0 0 0 0 0 0 0 0 0 0 0 0 0 0 0 0 0 0 0 0 0 0 0 0 0 0 0 0 0 0
0 0 0 0 0 0 0 0 0 0 0 0 0 0 0 0 0 0 0 0 0 0 0 0 0 0 0 0 0 0 0 0 0 0 0 0 0 0 0 0 0 0 0
0 0 0 0 0 0 0 0 0 0 0 0 0 0 0 0 0 0 0 0 0 0 0 0 0 0 0 0 0 0 0 0 0 0 0 0 0 0 0 0 0 0 0
0 0 0 0 0 0 0 0 0 0 0 0 0 0 0 0 0 0 0 0 0 0 0 0 0 0 0 0 0 0 0 0 0 0 0 0 0 0 0 0 0 0 0
0 0 0 0 0 0 0 0 0 0 0 0 0 0 0 0 0 0 0 0 0 0 0 0 0 0 0 0 0 0 0 0 0 0 0 0 0 0 0 0 0 0 0
0 0 0 0 0 0 0 0 0 0 0 0 0 0 0 0 0 0 0 0 0 0 0 0 0 0 0 0 0 0 0 0 0 0 0 0 0 0 0 0 0 0 0
0 0 0 0 0 0 0 0 0 0 0 0 0 0 0 0 0 0 0 0 0 0 0 0 0 0 0 0 0 0 0 0 0 0 0 0 0 0 0 0 0 0 0
0 0 0 0 0 0 0 0 0 0 0 0 0 0 0 0 0 0 0 0 0 0 0 0 0 0 0 0 0 0 0 0 0 0 0 0 0 0 0 0 0 0 0
0 0 0 0 0 0 0 0 0 0 0 0 0 0 0 0 0 0 0 0 0 0 0 0 0 0 0 0 0 0 0 0 0 0 0 0 0 0 0 0 0 0 0
0 0 0 0 0 0 0 0 0 0 0 0 0 0 0 0 0 0 0 0 0 0 0 0 0 0 0 0 0 0 0 0 0 0 0 0 0 0 0 0 0 0 0
0 0 0 0 0 0 0 0 0 0 0 0 0 0 0 0 0 0 0 0 0 0 0 0 0 0 0 0 0 0 0 0 0 0 0 0 0 0 0 0 0 0 0
0 0 0 0 0 0 0 0 0 0 0 0 0 0 0 0 0 0 0 0 0 0 0 0 0 0 0 0 0 0 0 0 0 0 0 0 0 0 0 0 0 0 0
0 0 0 0 0 0 0 0 0 0 0 0 0 0 0 0 0 0 0 0 0 0 0 0 0 0 0 0 0 0 0 0 0 0 0 0 0 0 0 0 0 0 0
0 0 0 0 0 0 0 0 0 0 0 0 0 0 0 0 0 0 0 0 0 0 0 0 0 0 0 0 0 0 0 0 0 0 0 0 0 0 0 0 0 0 0
0 0 0 0 0 0 0 0 0 0 0 0 0 0 0 0 0 0 0 0 0 0 0 0 0 0 0 0 0 0 0 0 0 0 0 0 0 0 0 0 0 0 0
0 0 0 0 0 0 0 0 0 0 0 0 0 0 0 0 0 0 0 0 0 0 0 0 0 0 0 0 0 0 0 0 0 0 0 0 0 0 0 0 0 0 0
0 0 0 0 0 0 0 0 0 0 0 0 0 0 0 0 0 0 0 0 0 0 0 0 0 0 0 0 0 0 0 0 0 0 0 0 0 0 0 0 0 0 0
0 0 0 0 0 0 0 0 0 0 0 0 0 0 0 0 0 0 0 0 0 0 0 0 0 0 0 0 0 0 0 0 0 0 0 0 0 0 0 0 0 0 0
0 0 0 0 0 0 0 0 0 0 0 0 0 0 0 0 0 0 0 0 0 0 0 0 0 0 0 0 0 0 0 0 0 0 0 0 0 0 0 0 0 0 0
0 0 0 0 0 0 0 0 0 0 0 0 0 0 0 0 0 0 0 0 0 0 0 0 0 0 0 0 0 0 0 0 0 0 0 0 0 0 0 0 0 0 0
Wind_Speed
1 1 1 1 2 1 2 2 2 3 3 3 3 3 3 3 3 3 3 6 7 9 10 11 11 12 12 12 12 13 13 13 13 13 13 13 14 14 14 14 14 13 13
1 1 2 2 2 2 2 2 2 2 2 2 3 3 4 3 3 3 3 3 5 7 9 10 11 11 12 12 12 12 12 13 13 14 14 15 15 15 16 16 15 15 15
2 2 1 2 2 2 2 2 2 2 2 3 4 4 3 3 3 3 3 2 2 4 6 9 10 10 10 10 11 11 11 11 11 12 13 14 15 15 16 16 16 16 16
3 2 2 2 2 2 2 2 2 2 3 3 3 4 3 3 3 3 2 2 2 2 3 5 6 7 8 9 11 11 11 10 10 11 12 12 13 14 15 16 16 15 16
4 3 2 2 2 2 2 3 2 2 3 4 4 3 3 3 3 3 2 2 2 2 2 3 4 5 6 8 9 10 11 10 10 10 11 12 12 13 14 15 16 16 16
5 4 2 4 3 2 3 3 2 2 2 3 4 4 3 3 2 2 2 2 2 2 3 3 3 4 6 7 9 10 10 10 10 9 10 11 11 12 13 14 14 15 16
4 4 3 4 3 3 3 3 2 3 3 3 3 3 3 2 2 1 1 2 2 3 3 3 3 2 3 6 8 10 11 11 11 10 9 8 9 11 12 13 14 14 15
4 4 4 3 3 3 4 4 3 2 2 2 2 2 3 4 3 3 2 2 3 3 3 4 3 3 3 2 5 8 10 11 12 11 10 10 10 11 11 11 12 11 11
3 3 3 3 3 3 3 3 3 2 2 2 1 1 1 2 3 3 2 2 3 3 3 3 4 4 4 3 4 6 9 9 10 11 11 10 11 11 11 11 11 10 9
3 3 3 3 3 2 3 3 3 2 2 2 2 1 1 1 2 3 3 2 3 4 4 4 4 5 4 4 5 8 9 9 10 11 11 11 11 12 12 11 11 11 11
3 3 2 2 2 2 2 3 3 3 2 1 1 2 2 2 1 2 4 3 3 2 3 3 3 3 4 4 4 7 9 10 10 11 11 11 12 12 12 12 12 11 11
2 2 2 2 2 2 2 2 2 2 2 2 1 1 1 1 2 2 3 4 4 3 3 2 3 3 4 4 6 10 10 10 10 10 11 11 11 11 11 12 11 11 11
1 2 2 2 2 2 2 2 2 2 2 2 2 1 1 1 1 2 3 4 4 3 2 1 2 3 4 4 5 9 9 10 10 11 11 11 11 11 11 12 12 11 11
2 2 2 2 2 2 2 1 1 1 1 2 2 2 1 2 1 1 2 3 4 3 2 2 2 2 3 4 6 10 6 11 10 10 11 11 11 11 10 10 11 11 11
2 2 1 1 2 2 1 1 1 1 1 1 2 2 1 1 1 1 1 1 2 4 4 2 2 3 4 3 7 5 5 9 10 10 10 10 10 11 11 10 11 11 11
2 2 2 1 1 1 1 1 1 1 1 2 1 2 2 2 1 1 1 1 2 3 4 2 2 3 4 5 8 5 5 10 10 10 10 10 10 11 11 10 11 11 12
3 2 2 2 1 1 1 0 1 1 1 2 2 1 2 2 1 1 1 1 2 2 3 3 2 3 4 5 5 5 4 4 5 11 11 11 11 10 11 11 11 12 12
3 3 2 2 2 2 1 1 1 1 1 2 2 2 2 1 2 1 1 2 2 2 2 4 3 3 3 4 5 5 5 5 4 9 11 11 10 11 11 12 12 12 12
3 3 2 3 2 2 2 2 2 2 2 2 2 2 2 1 2 2 2 2 2 2 1 2 3 2 2 3 4 5 5 4 5 7 9 10 11 12 12 12 12 12 12
4 3 3 3 3 3 3 2 2 2 2 2 2 2 2 2 2 2 2 2 2 2 2 2 3 3 3 3 3 4 5 4 5 5 7 8 10 12 12 13 12 12 12
5 4 4 3 3 3 3 3 3 2 2 2 2 2 2 2 2 2 2 1 1 2 2 2 3 3 3 3 4 4 5 5 4 3 4 4 5 5 6 9 11 12 12
4 4 4 4 4 3 5 6 4 3 2 2 2 2 2 2 3 4 4 3 3 2 2 2 2 3 4 3 4 4 5 5 5 3 4 6 4 4 4 4 11 14 13
4 4 4 4 4 5 7 7 6 3 3 3 3 2 2 2 2 1 2 4 4 5 4 2 2 3 3 4 4 5 4 5 5 5 4 5 4 4 4 7 14 13 12
4 4 4 5 4 6 8 8 7 3 2 3 3 3 3 2 2 2 1 1 2 2 3 2 1 2 3 3 3 3 4 5 5 3 3 4 4 4 6 6 11 12 13
4 4 4 5 5 6 8 8 6 2 2 2 3 3 3 3 4 4 1 1 2 2 3 3 4 4 6 7 5 3 3 4 5 4 2 3 4 6 6 5 6 11 14
5 4 4 4 5 5 8 9 7 3 3 2 2 2 4 4 5 4 1 1 2 2 2 2 3 4 4 5 6 3 2 3 4 4 2 3 4 5 6 4 3 5 7
Wind_Direction
25 7 355 352 341 338 332 325 321 316 310 302 295 292 287 281 276 271 274 269 266 266 265 262 259 257 253 251 250 251 250 249 249 250 248 246 244 243 244 245 245 246 248
36 20 4 358 348 335 322 313 318 311 304 305 304 297 287 283 277 276 274 279 278 276 273 269 267 266 264 262 260 260 258 258 257 256 255 252 249 247 247 247 246 246 247
30 30 19 1 340 335 338 339 342 334 331 324 308 300 292 287 286 279 280 278 286 289 285 281 280 277 275 274 273 271 269 266 265 265 263 260 255 252 250 249 248 246 246
28 28 17 352 338 346 353 346 350 334 328 321 308 300 298 295 294 288 290 296 295 297 300 304 302 298 293 285 282 280 279 278 273 271 272 269 266 261 257 254 251 249 250
22 26 14 350 347 360 0 348 348 330 318 320 305 298 302 298 294 307 316 321 323 329 324 330 325 316 310 302 297 294 290 289 286 279 276 273 271 270 269 266 257 252 251
19 20 16 3 4 11 4 351 329 323 307 310 307 309 301 297 307 322 320 342 355 353 344 337 325 318 319 314 310 305 303 301 298 292 286 281 280 278 276 272 269 260 255
18 24 18 7 10 16 2 352 338 334 338 338 338 326 318 316 339 345 346 359 359 346 343 341 335 329 324 322 319 315 311 307 303 301 300 297 292 285 281 279 273 268 263
16 26 26 10 8 12 11 7 2 350 340 358 354 331 330 332 347 344 346 360 346 347 351 345 339 333 325 316 326 328 320 312 309 309 307 302 297 294 291 287 284 279 271
21 24 24 19 8 15 7 357 360 3 330 327 349 335 325 300 315 314 342 356 355 350 342 337 340 332 329 330 322 330 331 325 317 312 311 312 309 300 295 293 290 290 287
11 17 14 13 12 12 6 351 6 349 336 328 325 332 291 279 287 308 316 342 349 350 346 344 344 344 346 340 338 345 345 337 327 322 320 318 315 312 308 304 303 298 293
357 3 5 8 8 1 356 352 351 353 345 333 328 319 309 301 274 274 295 316 329 331 334 332 341 348 350 350 343 348 350 342 331 326 324 322 321 321 318 315 311 307 302
329 339 352 355 353 348 342 339 342 348 345 344 337 329 312 301 306 286 284 302 307 307 322 336 352 350 352 354 351 354 353 350 341 334 330 330 330 327 324 321 318 314 311
296 305 322 326 328 327 332 343 351 349 347 340 333 323 323 306 303 288 286 294 294 293 302 338 349 350 353 350 345 351 350 349 345 341 336 333 335 333 328 325 322 320 317
252 273 287 303 317 322 327 343 351 332 345 342 340 333 318 323 326 312 292 297 299 293 288 302 331 359 348 342 349 352 343 347 345 346 344 343 342 338 332 328 327 328 324
247 252 266 287 304 313 319 340 358 332 338 329 322 326 317 317 324 319 316 293 278 288 290 306 332 346 343 343 350 346 337 342 348 348 348 349 348 344 339 336 332 327 322
241 240 254 262 276 295 332 17 347 336 344 321 312 329 323 320 324 336 328 318 285 266 273 304 313 324 338 345 346 342 335 344 348 347 345 346 345 343 339 340 338 335 332
229 231 235 242 255 265 272 286 299 322 319 317 318 318 317 321 314 326 324 313 306 288 275 293 304 319 331 336 333 333 334 337 339 343 343 345 345 346 346 345 342 338 334
226 224 221 224 238 245 244 231 250 267 262 279 292 303 305 313 310 310 307 302 296 286 269 286 305 316 319 325 327 331 339 343 335 339 341 343 345 348 347 344 341 338 335
222 220 214 220 230 231 231 235 231 246 252 258 262 267 277 286 290 294 296 293 295 306 284 283 299 307 310 324 330 329 332 331 331 335 339 342 342 341 339 337 336 335 332
217 220 221 223 226 227 225 225 222 237 254 266 266 265 265 256 256 267 279 282 291 301 302 297 297 305 310 321 332 328 324 331 325 331 337 336 335 336 334 333 331 330 327
218 215 217 226 228 225 223 213 213 220 227 255 274 280 280 280 277 281 290 289 295 293 301 300 301 309 318 334 332 320 316 319 309 323 322 320 321 319 324 326 328 325 323
220 213 216 221 227 233 235 228 211 205 212 226 252 274 286 298 307 323 333 342 337 309 294 288 299 305 309 313 308 316 318 323 314 329 326 309 310 308 312 311 320 323 323
215 217 219 218 228 237 238 238 229 200 204 220 231 246 269 285 305 303 341 350 350 342 334 306 292 294 298 305 308 311 311 306 293 307 317 298 306 301 305 314 319 319 322
212 216 220 219 226 237 236 236 231 208 207 222 230 229 233 250 262 262 257 315 322 328 328 334 271 280 289 293 288 297 300 302 290 296 308 290 303 300 307 306 316 321 325
217 215 214 213 220 237 234 230 222 189 207 230 241 239 228 231 256 271 239 268 299 306 326 337 331 332 335 340 344 343 329 323 312 312 332 307 307 309 301 294 308 321 323
219 215 221 216 216 228 232 230 220 191 209 228 239 246 243 234 247 265 230 230 269 281 305 327 342 350 352 348 354 358 320 310 309 305 326 326 309 325 313 291 290 302 307